This is the latest recevied weather packets stored in our database for station/object F8BMG-Wx. If no packets are shown the sender has not sent any weather packets the latest 10 day(s).
| Time | Temp. | Humidity | Pressure | Rain* | Wind** | Luminosity | Snow |
|---|---|---|---|---|---|---|---|
| 1778071867 | 16.11° C | 99% | 1012.1 hPa | 0 mm | - | - | - |
| 1778071569 | 16.67° C | 99% | 1012 hPa | 0 mm | - | - | - |
| 1778071257 | 16.11° C | 99% | 1012 hPa | 0 mm | - | - | - |
| 1778070953 | 15.56° C | 99% | 1012 hPa | 0 mm | - | - | - |
| 1778070650 | 16.11° C | 99% | 1011.8 hPa | 0 mm | - | - | - |
| 1778070346 | 16.67° C | 99% | 1011.9 hPa | 0 mm | - | - | - |
| 1778070042 | 16.67° C | 99% | 1011.9 hPa | 0 mm | - | - | - |
| 1778069745 | 16.11° C | 99% | 1011.9 hPa | 0 mm | - | - | - |
| 1778069433 | 16.11° C | 99% | 1012 hPa | 0 mm | - | - | - |
| 1778069129 | 15° C | 99% | 1012 hPa | 0 mm | - | - | - |
| 1778068826 | 14.44° C | 99% | 1012.2 hPa | 0 mm | - | - | - |
| 1778068522 | 14.44° C | 99% | 1012.2 hPa | 0 mm | - | - | - |
| 1778068219 | 14.44° C | 99% | 1012.2 hPa | 0 mm | - | - | - |
| 1778067921 | 15° C | 99% | 1012.2 hPa | 0 mm | - | - | - |
| 1778067609 | 15.56° C | 99% | 1012.2 hPa | 0 mm | - | - | - |
| 1778067305 | 14.44° C | 99% | 1012.1 hPa | 0 mm | - | - | - |
| 1778067002 | 14.44° C | 99% | 1012.2 hPa | 0 mm | - | - | - |
| 1778066695 | 15.56° C | 99% | 1012.3 hPa | 0 mm | - | - | - |
| 1778066392 | 16.11° C | 99% | 1012.4 hPa | 0 mm | - | - | - |
| 1778066094 | 16.67° C | 99% | 1012.3 hPa | 0 mm | - | - | - |
| 1778065783 | 16.67° C | 99% | 1012.2 hPa | 0 mm | - | - | - |
| 1778065479 | 16.11° C | 99% | 1012.2 hPa | 0 mm | - | - | - |
| 1778065175 | 16.67° C | 99% | 1012.2 hPa | 0 mm | - | - | - |
| 1778064872 | 15.56° C | 99% | 1012.3 hPa | 0 mm | - | - | - |
| 1778064568 | 15.56° C | 99% | 1012.3 hPa | 0 mm | - | - | - |
* Rain latest hour (hover to see other rain measurements)
** Current wind speed in m/s (hover to see current wind gust speed)